Flag for U.S.A. Weather past 2 weeks in Glennallen, Alaska, U.S.A.

Now
15 °F

Ice fog.


Feels Like: 15 °F
Forecast: -4 / 2 °F
Wind: No wind

Location: Gulkana Airport

Current Time: Dec 26, 2014 at 2:38:09 PM

Latest Report: Dec 26, 2014 at 1:53 PM


Visibility: 0 mi

Pressure: 30.12 "Hg

Humidity: 87%

Dew point: 12 °F

Location of GlennallenLocation

Historic Weather in Glennallen — Graph

°F

Glennallen temperature yesterday

Maximum temperature yesterday: 23 °F (at 11:53 PM)
Minimum temperature yesterday: -8 °F (at 2:53 AM)
Average temperature yesterday: 4 °F

Past Weeks' High & Low Weather Summary

 TemperatureHumidityPressure
High25 °F (Dec 17, 1:53 AM)92% (Dec 16, 11:53 PM)30.10 "Hg (Dec 16, 11:53 PM)
Low-15 °F (Dec 18, 9:53 AM)71% (Dec 18, 8:53 AM)29.04 "Hg (Dec 20, 7:01 PM)
Average5 °F81%29.67 "Hg
* Reported Dec 11 12:53 PM — Dec 26 12:53 PM, Glennallen, Weather by CustomWeather, © 2014

Note: Actual official high and low records may vary slightly from our data, if they occured in-between our weather recording intervals... More about our weather records

Advertising

Glennallen weather history for previous 24 hours

 ConditionsComfort  
Time TempWeatherWind HumidityBarometerVisibility
12:53 PM
Dec 26
15 °FIce fog.No wind87%30.10 "Hg0 mi
12:03 PM14 °FIce fog.No wind87%29.97 "Hg1 mi
11:53 AM14 °FIce fog.No wind84%30.09 "Hg2 mi
10:53 AM14 °FLow clouds.No wind84%30.08 "Hg8 mi
9:53 AM14 °FLow clouds.3 mph84%30.06 "Hg8 mi
8:53 AM14 °FIce fog.No wind87%30.04 "Hg2 mi
7:53 AM14 °FIce fog.No wind87%30.01 "Hg3 mi
6:53 AM15 °FLow clouds.No wind87%29.99 "Hg8 mi
6:03 AM16 °FMostly cloudy.3 mph84%29.86 "Hg10 mi
5:53 AM16 °FMostly cloudy.5 mph87%29.98 "Hg10 mi
4:53 AM16 °FPassing clouds.No wind84%29.99 "Hg10 mi
3:53 AM17 °FLow clouds.5 mph83%29.98 "Hg9 mi
2:53 AM18 °FPassing clouds.No wind84%29.98 "Hg10 mi
1:53 AM18 °FPassing clouds.No wind88%29.96 "Hg10 mi
12:53 AM25 °FLow clouds.3 mph85%29.93 "Hg10 mi
11:53 PM
Dec 25
23 °FMostly cloudy.7 mph78%29.91 "Hg10 mi
10:53 PM17 °FPassing clouds.No wind83%29.89 "Hg10 mi
9:53 PM16 °FPassing clouds.No wind84%29.89 "Hg10 mi
8:53 PM13 °FClear.No wind84%29.88 "Hg10 mi
7:53 PM15 °FPassing clouds.5 mph83%29.88 "Hg10 mi
6:53 PM14 °FLow clouds.5 mph87%29.87 "Hg10 mi
5:53 PM19 °FIce fog.7 mph85%29.85 "Hg6 mi
4:53 PM6 °FLow clouds.No wind79%29.84 "Hg8 mi
3:53 PM4 °FClear.3 mph84%29.80 "Hg8 mi
2:53 PM3 °FLight snow. Partly sunny.No wind79%29.81 "Hg3 mi
Weather by CustomWeather, © 2014

See weather overviewHow to use our weather pages